CAPE
0 0 0 0 0 0 0 0 0 0 0 0 0 0 0 0 0 0 0 0 0 0 0 0 0 0 0 0 222 929 1587 1703 1552 1632 1818 1833 1850 1810 1769 1779 1736 1617 1664 1606 1688 1482 1396 1604 1700 1808 1855 1907 1970 1895 1760 1413 1065 512 531 626 608 713 964 915 845 794 702 709 668 635 766 735 702 743 793 780 892 1026 1262 1455 1321 1131 1067 954 858 817
0 0 0 0 0 0 0 0 0 0 0 0 0 0 0 0 0 0 0 0 0 0 0 0 0 0 0 0 0 430 1414 1356 1458 1441 1451 1636 1730 1776 1868 1839 1818 1789 1647 1579 1322 1215 1383 1623 1779 1873 1898 1904 1928 1900 1731 1305 1033 612 649 690 667 698 693 725 697 578 747 650 661 669 731 636 669 784 818 891 1043 1129 1147 1155 1114 1048 960 829 759 727
0 0 0 0 0 0 0 0 0 0 0 0 0 0 0 0 0 0 0 0 0 0 0 0 0 0 0 0 22 175 960 1338 1466 1485 1537 1602 1666 1760 1780 1792 1821 1701 1648 1575 1448 1208 1286 1556 1778 1871 1958 1974 1934 1919 1688 1264 1032 896 781 743 648 607 549 605 528 602 896 967 774 746 546 670 722 821 896 868 940 975 996 973 962 936 815 673 647 618
0 0 0 0 0 0 0 0 0 0 0 0 0 0 0 0 0 0 0 0 0 0 0 0 0 0 0 0 0 527 878 1359 1471 1476 1638 1668 1748 1747 1774 1770 1715 1644 1734 1541 1495 1292 1262 1488 1786 1892 1980 2060 1973 1893 1629 1233 1052 854 871 625 729 651 561 633 509 660 736 786 714 814 664 643 749 879 892 841 836 845 796 790 806 814 645 561 555 521
0 0 0 0 0 0 0 0 0 0 0 0 0 0 0 0 0 0 0 0 0 0 0 0 0 0 0 0 0 57 691 1028 1090 1185 1224 1212 1421 1663 1692 1400 1498 1571 1638 1647 1501 1483 1128 1400 1636 1914 2051 2168 2011 1805 1570 1252 1060 930 837 836 942 783 594 730 707 959 706 423 433 511 634 754 821 776 825 728 760 754 729 733 740 709 499 497 482 431
0 0 0 0 0 0 0 0 0 0 0 0 0 0 0 0 0 0 0 0 0 0 0 0 0 0 0 0 0 255 130 450 731 951 1054 1173 1316 1237 1223 1332 1487 1471 1537 1586 1432 1336 1048 1308 1648 1798 1985 2122 2104 2015 1664 1238 1086 993 681 650 721 817 871 823 674 628 470 390 469 606 727 788 743 792 648 745 724 665 648 715 767 653 462 456 404 393
0 0 0 0 0 0 0 0 0 0 0 0 0 0 0 0 0 0 0 0 0 0 0 0 0 0 0 0 0 84 140 318 403 546 926 1233 1293 1277 1350 1460 1463 1404 1412 1373 1414 1456 1098 1256 1603 1875 1965 2006 2124 2064 1837 1419 1094 1063 915 784 757 856 880 934 568 601 633 584 685 818 1015 1042 820 713 666 704 659 578 635 717 794 623 419 371 396 450
0 0 0 0 0 0 0 0 0 0 0 0 0 0 0 0 0 0 0 0 0 0 0 0 0 0 0 0 0 18 269 418 473 532 783 1060 1195 1312 1414 1532 1511 1481 1446 1254 1298 1393 1169 1178 1578 1864 1970 2052 2042 2084 1923 1682 1213 1113 1075 848 692 613 895 835 515 697 501 569 860 976 947 919 926 822 673 700 657 584 706 768 656 546 391 414 451 422
0 0 0 0 0 0 0 0 0 0 0 0 0 0 0 0 0 0 0 0 0 0 0 0 0 0 0 0 21 74 44 200 333 485 644 746 955 1185 1287 1420 1434 1399 1294 1193 1234 1415 1209 1132 1470 1876 2069 2110 2088 2032 1952 1751 1445 1127 1144 1015 877 633 881 795 640 575 492 503 697 818 669 663 722 672 655 675 691 732 767 814 666 479 449 470 437 384
0 0 0 0 0 0 0 0 0 0 0 0 0 0 0 0 0 0 0 0 0 0 0 0 0 0 0 1 45 146 63 155 371 479 559 671 789 912 1061 1166 1231 1300 1290 1252 1281 1335 1223 1128 1267 1870 2147 2188 2166 2001 1863 1736 1536 1262 1178 1100 766 655 716 603 639 790 800 479 582 768 643 633 664 632 622 608 632 686 678 618 606 455 490 474 434 420
0 0 0 0 0 0 0 0 0 0 0 0 0 0 0 0 0 0 0 0 0 0 0 0 0 0 0 0 0 168 174 430 444 503 632 681 737 791 998 1152 1245 1245 1334 1299 1362 1329 1245 1125 1190 1886 2196 2155 2106 1973 1674 1529 1485 1255 1192 935 732 551 734 684 734 768 704 608 925 920 576 613 722 796 861 824 803 788 702 679 553 499 494 463 444 350
0 0 0 0 0 0 0 0 0 0 0 0 0 0 0 0 0 0 0 0 0 0 0 0 0 0 0 0 0 122 415 160 141 164 336 489 684 766 958 1157 1180 1154 1230 1338 1331 1318 1271 1181 1266 1900 2244 2092 2031 1815 1451 1359 1295 1196 1000 757 549 623 737 641 556 625 600 602 962 814 651 736 828 848 898 872 871 756 638 585 518 496 481 471 375 187
0 0 0 0 0 0 0 0 0 0 0 0 0 0 0 0 0 0 0 0 0 0 0 0 0 0 0 0 0 0 4 151 451 135 128 456 592 834 951 1132 1159 1193 1260 1276 1325 1212 1238 1280 1405 1974 2178 2158 2056 1687 1326 1250 1249 1069 847 840 730 530 640 609 620 682 596 698 750 710 719 749 854 914 808 807 843 685 644 556 494 489 506 444 278 44
0 0 0 0 0 0 0 0 0 0 0 0 0 0 0 0 0 0 0 0 0 0 0 0 0 0 0 0 0 0 0 1 326 578 408 210 685 1057 974 1162 1147 1202 1207 1300 1290 1237 1284 1282 1522 1925 2092 2077 2038 1695 1124 999 1138 1021 836 906 832 457 501 652 678 660 666 617 718 830 923 917 1002 1023 751 692 775 745 722 566 498 547 496 376 131 8
2 0 0 0 0 0 0 0 0 0 0 0 0 0 0 0 0 0 0 0 0 0 0 0 0 0 0 0 0 0 2 32 0 0 213 637 571 831 905 1076 1148 1204 1252 1236 1247 1274 1309 1327 1713 2045 2180 2163 1910 1382 1064 969 1197 1144 1073 927 695 534 598 712 716 830 811 809 896 1051 1097 1090 1044 948 704 670 699 738 656 560 568 564 476 287 53 6
0 0 0 0 0 0 0 0 0 0 0 0 0 0 0 0 0 0 0 0 0 0 0 0 0 0 0 0 0 0 0 307 215 85 76 536 809 962 1045 1187 1172 1154 1195 1209 1311 1390 1394 1462 1918 2072 2145 2053 1790 1313 1117 992 1338 1324 1192 798 752 890 851 792 729 819 914 933 1012 1076 1082 1085 1009 832 786 781 702 705 644 591 608 559 409 254 215 22
0 0 0 0 0 0 0 0 0 0 0 0 0 0 0 0 0 0 0 0 0 0 0 0 0 0 0 0 96 150 418 631 705 402 507 872 1015 1146 1212 1280 1239 1103 1124 1266 1320 1370 1367 1401 1962 2185 2138 1934 1578 1318 1222 1030 1207 1342 933 888 827 1003 687 629 796 834 828 954 1049 1148 1144 1034 1005 846 822 760 716 676 639 639 622 490 367 267 225 217
0 0 0 0 0 0 0 0 0 0 0 0 0 0 0 0 0 0 0 0 0 0 0 0 0 0 0 0 198 486 130 544 987 917 945 1196 1240 1256 1387 1421 1265 1134 1165 1271 1342 1318 1359 1427 1888 2061 2096 1636 1432 1440 1446 1088 1170 1326 888 886 858 650 720 851 794 835 978 1013 1028 969 1054 976 895 863 810 677 707 690 695 679 550 413 325 264 245 239
0 0 0 0 0 0 0 0 0 0 0 0 0 0 0 0 0 0 0 0 0 0 0 0 0 0 0 0 0 33 245 512 841 978 984 1108 1172 1325 1423 1348 1200 1054 1134 1215 1306 1335 1353 1560 1857 1792 1435 1341 1570 1617 1522 1410 1311 1274 1047 797 845 630 801 813 913 837 938 954 999 1030 1032 940 941 972 789 718 724 732 726 711 550 430 350 302 288 258
0 0 0 0 0 0 0 0 0 0 0 0 0 0 0 0 0 0 0 0 0 0 0 0 0 0 0 0 0 0 388 878 1008 887 1073 1154 1204 1393 1405 1267 1085 1099 1118 1203 1291 1283 1295 1527 1523 1460 1206 1299 1367 1512 1600 1380 1259 1094 850 676 753 827 796 760 753 761 850 911 988 1053 1024 959 1001 954 767 717 738 729 756 684 537 414 354 335 286 250
0 4 0 0 0 0 0 0 0 0 0 0 0 0 0 0 0 0 0 0 0 0 0 0 0 0 0 0 0 0 0 650 1035 1135 1163 1255 1270 1363 1332 1199 1143 1110 1108 1167 1275 1331 1276 1234 1224 1174 1086 1133 1295 1498 1569 1473 1367 1267 937 879 1068 873 719 814 791 631 758 816 948 1105 1100 1016 936 885 750 724 770 747 701 601 462 350 289 254 248 194
0 0 0 0 0 0 0 0 0 0 0 0 0 0 0 0 0 0 0 0 0 0 0 0 0 0 0 0 0 0 18 245 922 1182 1204 1123 1103 1137 1189 1191 1160 1122 1130 1195 1333 1382 1444 1309 1111 1087 1076 1226 1233 1455 1559 1524 1416 1260 1034 951 1126 996 772 755 760 708 783 877 928 1077 1071 925 832 773 736 794 736 727 694 548 426 335 239 240 188 166
3 0 0 0 0 0 0 0 0 0 0 0 0 0 0 0 0 0 0 0 0 0 0 0 0 0 0 0 0 0 0 109 572 923 1057 1057 1100 1091 1144 1166 1142 1040 1117 1190 1313 1436 1468 1331 1133 1130 1184 1270 1349 1376 1649 1471 1372 1206 1085 1012 1147 1048 945 878 842 643 727 920 1027 1102 1032 808 774 802 809 760 704 674 631 476 369 297 226 208 0 168
1 0 0 0 0 0 0 0 0 0 0 0 0 0 0 0 0 0 0 0 0 0 0 0 0 0 0 0 0 0 0 66 673 892 1050 1073 1067 1079 1062 1110 1006 1091 1122 1243 1462 1540 1440 1373 1203 1255 1295 1277 1358 1377 1464 1515 1491 1334 1157 1071 1070 972 896 912 802 580 678 950 994 1063 1041 891 780 862 827 748 754 662 552 424 331 274 255 184 3 180
0 0 0 0 0 0 0 0 0 0 0 0 0 0 0 0 0 0 0 0 0 0 0 0 0 0 0 0 55 4 111 484 662 848 972 1148 1037 985 965 1039 1061 1074 1142 1350 1531 1533 1457 1313 1355 1410 1411 1410 1299 1443 1503 1458 1488 1501 1319 1131 1115 989 903 892 816 637 612 864 967 1063 1060 926 815 813 774 783 751 651 498 392 314 247 259 154 18 223
0 0 0 0 0 0 0 0 0 0 0 0 0 0 0 0 0 0 0 0 0 0 0 0 0 0 0 0 474 794 812 824 706 796 841 1132 1039 891 891 1052 1068 1058 1125 1314 1510 1504 1421 1425 1471 1457 1571 1558 1492 1399 1443 1452 1461 1518 1400 1245 1156 1058 910 904 817 554 753 944 910 1054 1034 897 759 672 700 710 660 566 451 355 279 251 269 127 27 248
4 6 0 0 0 0 0 0 0 0 0 0 0 0 0 0 0 0 0 0 0 0 0 0 0 0 0 0 1 872 1023 1060 861 711 790 889 886 902 902 922 1063 1078 1133 1211 1500 1489 1512 1447 1326 1325 1586 1671 1682 1540 1503 1446 1369 1501 1472 1338 1198 1084 966 889 879 682 732 1007 992 1086 1016 878 766 669 700 655 601 510 411 338 331 371 323 148 0 244
0 0 0 0 0 0 0 0 0 0 0 0 0 0 0 0 0 0 0 0 0 0 0 0 0 0 0 0 0 7 587 744 836 767 785 753 921 894 810 868 988 1120 1189 1263 1390 1478 1508 1463 1407 1490 1611 1658 1655 1589 1557 1491 1367 1506 1511 1435 1288 1113 1026 902 856 720 784 864 969 1106 1001 891 816 694 620 610 524 426 348 355 391 396 297 166 0 63
0 0 0 0 0 0 0 0 0 0 0 0 0 0 0 0 0 0 0 0 0 0 0 1 0 0 0 0 0 41 228 1024 1014 897 763 761 828 870 870 834 872 956 1045 1198 1308 1425 1568 1525 1481 1526 1664 1614 1678 1618 1556 1407 1273 1433 1546 1500 1399 1175 1057 1041 992 828 958 885 718 1070 986 900 754 598 570 521 430 371 356 400 407 340 283 1 1 0
0 0 0 0 0 0 0 0 0 0 0 0 0 0 0 0 0 0 0 0 0 0 0 0 0 0 0 12 48 187 32 585 864 792 794 812 788 773 860 806 794 915 1022 1182 1269 1436 1542 1606 1579 1558 1642 1405 1551 1501 1517 1446 1250 1242 1265 1249 1194 1080 1008 1018 1023 864 994 988 892 951 860 735 669 557 505 443 399 367 361 410 408 329 263 1 2 1
0 1 1 0 0 0 0 0 0 0 0 0 0 0 0 0 0 0 0 0 0 0 0 0 0 0 0 0 0 41 43 577 622 612 754 822 885 853 817 790 831 861 896 1143 1266 1428 1584 1562 1586 1569 1532 1571 1601 1648 1496 1284 1187 1104 1060 1050 1072 1160 1099 825 905 924 1083 1042 922 884 928 804 643 541 471 430 414 298 326 383 383 309 247 0 1 0
9 2 1 0 0 0 0 0 0 0 0 0 0 0 0 0 0 0 0 0 0 0 1 0 7 0 0 0 17 60 354 696 774 716 735 776 866 861 839 842 883 901 932 1082 1270 1374 1449 1576 1464 1563 1539 1669 1572 1714 1572 1403 1358 1306 1201 1131 1099 1023 842 689 757 985 1086 1006 949 880 853 737 713 651 564 453 327 321 360 428 373 293 260 0 60 150
14 4 1 0 0 0 0 0 0 0 0 0 0 0 0 0 0 0 0 0 0 0 0 0 0 3 31 131 689 624 601 966 1008 805 752 736 845 855 882 872 928 857 997 1114 1285 1310 1276 1481 1624 1579 1559 1584 1342 1576 1541 1491 1430 1470 1507 1456 1051 890 863 757 796 964 972 868 861 950 887 759 713 728 675 526 372 237 332 424 363 308 291 240 182 128
15 6 0 0 0 0 0 0 0 0 0 0 0 0 0 0 0 0 0 0 0 0 0 0 0 0 62 278 1033 1179 804 883 968 858 783 752 818 875 932 974 980 991 1058 1208 1319 1219 1228 1257 1388 1648 1602 1560 1461 1322 1315 1234 1474 1546 1530 1542 1122 846 891 1075 928 998 867 747 829 914 890 789 715 675 635 562 414 258 271 364 377 357 297 230 200 160
10 0 0 0 0 0 0 0 0 0 0 0 0 0 0 0 0 0 0 0 0 0 0 0 0 4 147 668 784 1029 923 721 738 899 827 801 814 924 967 1037 1030 1013 1041 1181 1303 1454 1411 1427 1404 1558 1643 1577 1494 1482 1351 1093 1137 1170 1418 1471 1125 826 929 929 998 913 1015 953 873 663 532 619 623 653 668 560 405 233 251 338 431 408 345 248 227 206
5 0 0 0 0 0 0 0 0 0 0 0 0 0 0 0 0 0 0 0 0 0 0 7 0 31 356 398 359 587 825 573 578 893 1059 976 895 1036 1106 1112 958 940 1063 1171 1187 1298 1562 1554 1543 1631 1643 1576 1445 1378 1204 1080 994 1043 1144 1155 995 870 815 794 624 558 712 1021 830 535 488 518 642 645 668 531 356 210 140 276 395 434 316 229 231 244
0 0 0 0 0 0 0 0 0 0 60 43 56 36 13 0 0 0 0 0 3 0 0 33 23 85 403 475 602 561 676 834 1259 1242 872 1007 952 1007 1238 1289 1153 1100 1108 1210 1260 1260 1481 1521 1636 1599 1617 1533 1368 1460 1392 1280 1191 1198 1170 1172 1082 829 838 961 923 802 584 916 853 568 451 387 550 635 598 518 321 11 90 312 416 346 225 198 228 253
0 10 2 0 0 0 2 48 38 60 68 34 51 4 0 0 0 0 0 0 0 0 0 39 206 206 501 578 650 801 1078 1393 1689 1717 1535 1061 1060 1003 934 1122 1138 1137 1164 1232 1152 1334 1321 1441 1525 1489 1534 1502 1366 1351 1412 1322 1182 1030 1091 1179 1138 1001 816 736 791 712 583 827 748 464 439 394 531 620 596 551 132 35 280 323 288 222 182 188 234 244
5 12 0 0 0 0 14 67 21 43 31 60 132 52 52 0 0 0 0 0 0 0 0 12 162 309 549 710 1037 904 943 888 873 1027 1325 1216 1184 1118 1094 1142 1090 1097 1053 1083 1154 1162 1221 1374 1452 1486 1528 1503 1309 1242 1242 1353 1140 972 974 961 1022 1027 962 797 660 505 468 578 704 545 442 417 423 499 546 513 331 112 324 260 202 167 153 176 200 221
8 14 2 0 0 0 1 65 51 76 172 178 161 87 8 0 0 0 0 0 52 170 34 13 142 392 577 755 1020 1036 702 390 467 442 709 1190 1074 1160 1319 1305 1203 1125 1061 1095 1107 1183 1200 1289 1343 1290 1476 1395 1254 1259 1132 1098 1190 1247 1225 1101 898 799 766 679 536 461 305 329 468 622 572 480 320 291 294 266 28 30 216 210 183 130 6 141 179 116
4 12 12 39 7 0 26 75 88 112 166 182 117 56 14 0 0 0 0 0 0 147 196 26 71 306 693 905 933 1233 469 377 366 436 792 1176 1335 1287 1252 1308 1264 1256 1180 1169 1126 1067 1083 1040 1114 1240 1267 1254 1210 1307 1339 1153 1092 1054 1009 951 839 761 586 479 465 495 451 451 473 523 511 393 285 71 152 75 34 51 189 205 197 158 0 0 0 3
2 10 12 10 25 10 81 118 114 237 203 168 97 10 0 0 0 0 1 185 121 362 324 197 168 136 454 1075 775 522 496 354 238 426 835 1191 1377 1261 1345 1337 1410 1346 1278 1301 1234 1198 1191 1135 1113 1219 1330 1032 1202 1262 1350 1355 1295 1170 1053 963 812 642 584 591 506 473 476 404 471 54 363 352 0 0 26 48 98 41 54 52 167 53 10 12 10 0
1 3 2 14 14 5 97 126 134 284 129 475 89 72 86 0 0 200 277 464 348 359 291 206 197 136 260 843 595 526 169 215 288 266 741 1098 1210 1303 1354 1384 1389 1402 1221 1079 1052 1198 1255 1247 1194 1136 1088 1025 1106 1186 1199 1288 1364 1317 1195 972 852 602 522 502 414 174 423 379 388 430 145 77 120 150 178 127 93 76 92 73 64 50 88 83 75 7
0 1 0 9 2 138 8 94 151 378 399 248 219 270 413 409 509 532 368 552 414 291 246 237 145 171 268 758 814 559 244 298 197 223 643 966 1140 1254 1312 1370 1367 1314 1408 1288 1253 1269 1132 1024 942 927 911 872 905 922 951 978 1133 1022 827 736 684 358 148 45 78 58 71 137 316 309 254 199 197 90 108 76 38 57 36 21 10 10 9 5 50 42
0 41 0 20 0 6 137 294 368 414 480 496 527 520 546 564 568 572 590 573 534 419 318 192 214 227 295 693 796 516 274 269 155 302 507 829 1013 1170 1252 1306 1330 1298 1322 1338 1263 1231 1148 1090 960 857 819 823 933 949 988 962 949 933 870 685 543 146 48 37 44 92 123 134 94 275 263 251 55 82 6 24 60 60 49 33 38 58 60 46 100 127
209 275 231 405 340 479 468 568 663 622 609 648 633 574 576 565 550 572 686 758 563 506 351 286 207 310 438 687 950 456 357 338 277 419 658 870 1051 1123 1237 1268 1335 1301 1281 1303 1177 1076 1007 974 904 781 834 816 1005 928 1014 901 814 787 716 629 605 484 44 56 76 102 80 116 89 87 89 70 50 54 42 21 4 32 2 0 0 0 13 48 67 54
211 168 332 627 288 267 399 487 559 488 611 685 642 633 616 595 596 616 720 787 684 589 561 479 423 446 542 726 866 605 427 422 464 617 909 1094 1192 1222 1289 1316 1289 1252 1215 1226 1054 1036 875 791 851 893 970 990 910 934 994 896 654 574 510 467 326 231 81 393 84 80 49 66 87 76 85 70 24 29 3 0 0 56 0 0 0 6 11 10 2 40
48 228 418 222 215 119 404 649 651 606 583 756 747 710 684 688 682 633 663 765 818 768 775 808 735 599 634 890 859 792 538 505 692 859 1043 1184 1273 1327 1371 1411 1426 1359 1172 1035 953 978 859 882 910 1027 1008 1057 892 919 866 737 689 554 447 342 337 246 83 106 94 85 104 93 58 58 77 86 29 15 116 105 86 92 52 13 56 44 9 24 34 40
0 220 243 223 380 591 599 628 644 750 683 677 754 753 680 648 668 657 712 771 787 838 810 957 1009 984 909 919 942 694 524 860 1124 1153 1235 1425 1512 1487 1370 1288 1164 1015 1001 927 957 886 759 682 885 1011 1011 996 814 709 578 548 473 479 441 332 181 147 44 68 62 290 200 189 206 145 92 72 55 37 30 16 16 13 6 2 0 1 16 28 27 28
27 139 209 432 568 563 617 621 565 556 496 547 564 542 544 578 593 631 675 775 827 783 818 861 695 763 844 852 852 683 698 1067 1326 1389 1412 1284 1252 1202 1109 1030 1044 1057 949 820 792 606 602 599 549 714 707 748 870 736 584 317 360 369 353 319 236 181 22 43 33 22 26 8 77 89 68 48 52 37 50 22 4 0 0 0 0 12 19 28 7 2
128 205 403 668 565 591 606 580 481 415 502 444 428 431 448 474 528 664 579 616 656 730 754 746 846 853 750 637 545 847 1005 1072 1126 1128 922 772 874 979 1026 1058 1106 1048 875 664 503 412 426 467 469 487 443 513 689 670 330 438 537 465 403 262 196 84 66 56 44 57 77 93 108 88 44 144 104 87 54 11 0 0 2 38 31 8 0 2 6 0
Wind_Speed
nan nan nan nan nan nan nan nan nan nan nan nan nan nan nan nan nan nan nan nan nan nan nan nan nan nan nan nan 32 31 30 27 27 26 27 24 21 20 16 11 8 7 9 17 18 18 17 17 18 19 17 14 15 16 18 20 20 20 20 21 20 21 20 19 20 22 22 20 22 23 22 24 27 26 25 25 25 22 20 20 20 22 22 21 22 21
nan nan nan nan nan nan nan nan nan nan nan nan nan nan nan nan nan nan nan nan nan nan nan nan nan nan nan nan nan 34 33 27 26 25 24 23 21 21 15 11 10 11 19 21 22 22 21 20 19 20 18 16 16 16 18 20 21 21 22 22 22 21 20 19 23 29 26 21 20 22 22 24 27 25 24 25 24 22 21 21 22 23 23 22 22 21
nan nan nan nan nan nan nan nan nan nan nan nan nan nan nan nan nan nan nan nan nan nan nan nan nan nan nan nan nan 32 29 27 25 26 25 24 22 20 17 14 14 17 15 17 16 22 22 21 21 20 17 15 15 17 18 19 21 22 22 23 23 22 20 21 28 28 25 22 22 22 21 22 26 25 24 24 24 23 22 22 23 24 23 23 22 20
nan nan nan nan nan nan nan nan nan nan nan nan nan nan nan nan nan nan nan nan nan nan nan nan nan nan nan nan nan 29 26 27 26 26 29 29 24 19 17 19 21 17 17 13 15 18 22 21 20 19 17 17 17 17 17 19 20 22 23 24 24 23 22 24 27 25 22 23 25 24 23 24 24 24 26 27 27 26 24 25 25 24 23 23 21 20
nan nan nan nan nan nan nan nan nan nan nan nan nan nan nan nan nan nan nan nan nan nan nan nan nan nan nan nan nan nan 25 26 26 26 26 25 22 23 24 23 20 17 15 15 17 21 20 21 19 19 18 19 17 16 18 19 21 25 22 22 23 23 24 24 24 25 25 27 28 27 28 27 28 27 28 29 28 25 25 25 25 24 22 22 21 20
nan nan nan nan nan nan nan nan nan nan nan nan nan nan nan nan nan nan nan nan nan nan nan nan nan nan nan nan nan 25 21 17 21 23 21 20 21 21 20 18 19 18 17 16 17 18 20 21 21 20 20 19 16 17 19 19 22 26 22 23 22 22 22 24 24 27 26 25 26 26 26 24 24 27 27 26 25 23 23 24 24 23 22 22 21 20
nan nan nan nan nan nan nan nan nan nan nan nan nan nan nan nan nan nan nan nan nan nan nan nan nan nan nan nan nan nan 15 11 17 18 18 21 23 22 20 20 21 19 17 16 17 20 20 21 21 19 19 19 18 19 19 19 21 27 23 23 22 19 19 22 24 27 26 25 23 23 22 21 21 25 25 25 24 24 24 22 22 22 22 21 21 21
nan nan nan nan nan nan nan nan nan nan nan nan nan nan nan nan nan nan nan nan nan nan nan nan nan nan nan nan nan nan 18 16 15 11 9 13 15 17 18 20 21 20 18 17 17 19 21 21 20 19 19 22 21 21 21 19 20 25 25 25 25 19 18 21 25 26 27 26 23 22 23 21 22 24 25 26 27 25 23 22 22 22 22 21 21 21
nan nan nan nan nan nan nan nan nan nan nan nan nan nan nan nan nan nan nan nan nan nan nan nan nan nan nan nan nan nan nan 17 8 1 4 4 6 10 15 19 18 17 17 16 18 19 20 23 21 21 20 23 24 23 21 19 19 21 23 26 28 21 20 23 25 27 27 25 23 20 21 23 25 28 29 28 26 25 24 23 23 23 22 21 21 22
nan nan nan nan nan nan nan nan nan nan nan nan nan nan nan nan nan nan nan nan nan nan nan nan nan nan nan nan nan 30 nan 11 1 3 2 2 3 6 10 12 13 14 15 16 17 20 22 25 24 23 23 24 25 24 21 19 19 18 20 26 32 23 24 23 22 25 24 23 22 22 22 25 27 27 28 27 26 25 24 24 24 23 21 20 21 20
nan nan nan nan nan nan nan nan nan nan nan nan nan nan nan nan nan nan nan nan nan nan nan nan nan nan nan nan nan 28 17 9 11 9 5 1 1 2 4 7 11 12 13 16 18 21 22 26 26 25 23 23 26 24 20 18 18 18 20 30 33 30 22 19 19 21 22 21 22 22 23 26 27 26 26 25 23 23 24 24 23 21 20 20 20 20
nan nan nan nan nan nan nan nan nan nan nan nan nan nan nan nan nan nan nan nan nan nan nan nan nan nan nan nan nan 22 20 13 10 7 2 1 3 2 2 6 9 9 10 13 18 22 23 25 25 25 23 25 27 24 19 17 17 19 29 37 33 23 21 19 17 19 21 22 22 22 23 24 24 24 23 22 22 21 22 22 20 19 21 20 20 20
nan nan nan nan nan nan nan nan nan nan nan nan nan nan nan nan nan nan nan nan nan nan nan nan nan nan nan nan nan nan nan 16 14 10 7 5 3 3 7 8 11 11 12 15 20 22 24 24 24 24 24 26 25 23 19 16 17 28 36 33 21 20 21 21 18 17 21 22 21 19 20 23 22 22 23 21 21 20 21 21 19 19 20 20 19 nan
nan nan nan nan nan nan nan nan nan nan nan nan nan nan nan nan nan nan nan nan nan nan nan nan nan nan nan nan nan nan nan nan 12 9 9 10 10 11 10 11 13 12 14 17 20 22 23 23 24 25 25 25 26 23 20 19 22 32 31 23 19 22 23 22 21 21 24 25 21 21 22 22 22 22 21 21 22 21 21 21 19 19 20 18 16 nan
nan nan nan nan nan nan nan nan nan nan nan nan nan nan nan nan nan nan nan nan nan nan nan nan nan nan nan nan nan nan nan nan nan nan 13 12 12 12 12 14 15 14 14 16 18 21 22 22 24 26 26 25 25 22 21 21 26 32 29 21 21 22 24 24 26 30 28 26 22 18 20 20 19 20 20 22 23 22 20 19 19 20 20 18 nan nan
nan nan nan nan nan nan nan nan nan nan nan nan nan nan nan nan nan nan nan nan nan nan nan nan nan nan nan nan nan nan nan 24 22 nan nan 13 14 14 14 16 17 16 16 15 17 20 20 23 24 25 25 24 24 23 22 23 27 31 29 30 24 23 26 29 33 29 20 18 17 19 19 19 20 20 20 21 23 20 18 19 20 21 20 19 19 nan
nan nan nan nan nan nan nan nan nan nan nan nan nan nan nan nan nan nan nan nan nan nan nan nan nan nan nan nan nan 32 27 24 26 22 17 15 13 14 14 16 18 17 17 16 17 19 21 24 22 21 22 23 24 23 22 24 28 30 33 30 24 22 26 30 27 21 16 18 19 19 17 19 20 19 19 20 19 18 16 19 22 22 22 22 21 19
nan nan nan nan nan nan nan nan nan nan nan nan nan nan nan nan nan nan nan nan nan nan nan nan nan nan nan nan 32 31 28 24 25 22 17 16 12 10 12 17 19 18 18 17 16 17 18 20 20 20 22 24 23 22 23 26 29 30 31 32 27 23 22 22 22 20 18 20 20 18 17 18 17 17 19 22 19 16 17 20 23 24 23 23 22 20
nan nan nan nan nan nan nan nan nan nan nan nan nan nan nan nan nan nan nan nan nan nan nan nan nan nan nan nan nan nan 24 22 21 20 16 10 6 7 13 19 21 21 18 14 12 13 16 18 20 21 22 24 24 23 24 27 29 28 30 33 29 18 13 17 20 20 21 21 20 18 18 17 16 17 19 19 19 18 19 21 23 24 24 25 24 21
nan nan nan nan nan nan nan nan nan nan nan nan nan nan nan nan nan nan nan nan nan nan nan nan nan nan nan nan nan nan 23 22 23 16 9 5 3 8 13 17 17 17 13 9 9 12 14 19 20 22 24 25 23 22 23 23 23 24 29 31 20 14 13 16 16 18 20 20 21 19 18 16 16 18 20 20 18 19 20 22 24 24 24 23 23 21
nan nan nan nan nan nan nan nan nan nan nan nan nan nan nan nan nan nan nan nan nan nan nan nan nan nan nan nan nan nan nan 22 18 13 13 11 9 10 13 12 10 8 8 8 10 13 15 20 21 23 23 23 22 21 19 17 17 21 25 23 17 15 15 16 16 16 18 19 20 20 19 17 17 18 18 19 19 21 21 23 24 23 23 23 22 21
nan nan nan nan nan nan nan nan nan nan nan nan nan nan nan nan nan nan nan nan nan nan nan nan nan nan nan nan nan nan nan 24 19 19 18 16 13 11 11 9 7 6 6 9 12 14 15 18 19 21 21 21 19 18 16 14 15 19 21 22 19 17 16 17 17 16 17 18 18 18 17 17 17 17 17 20 21 21 22 23 22 23 24 24 23 21
nan nan nan nan nan nan nan nan nan nan nan nan nan nan nan nan nan nan nan nan nan nan nan nan nan nan nan nan nan nan nan 25 21 19 19 17 14 12 12 10 8 6 7 8 9 10 11 13 14 15 17 17 15 13 13 13 14 16 19 21 20 18 17 17 16 15 16 16 17 17 17 19 19 17 17 20 21 22 22 22 23 23 24 24 nan 21
nan nan nan nan nan nan nan nan nan nan nan nan nan nan nan nan nan nan nan nan nan nan nan nan nan nan nan nan nan nan nan nan 25 21 19 18 16 14 13 11 9 8 8 8 8 9 10 12 13 13 14 14 13 11 11 12 14 16 17 18 19 18 18 18 17 17 16 16 16 18 20 21 20 18 17 19 20 22 22 22 22 24 25 25 nan 22
nan nan nan nan nan nan nan nan nan nan nan nan nan nan nan nan nan nan nan nan nan nan nan nan nan nan nan nan nan nan 25 23 23 21 18 17 16 15 13 13 11 9 8 8 9 10 12 13 13 12 12 12 12 11 11 11 13 14 15 16 17 17 18 17 18 17 16 16 17 19 21 22 20 18 17 19 21 22 22 22 23 25 26 26 nan 23
nan nan nan nan nan nan nan nan nan nan nan nan nan nan nan nan nan nan nan nan nan nan nan nan nan nan nan nan 26 26 25 25 24 20 16 17 17 16 14 14 13 10 8 8 10 12 12 13 12 11 11 11 11 11 11 12 13 15 16 17 17 18 17 17 19 18 18 18 19 19 20 21 20 18 17 19 21 22 22 22 25 27 27 27 nan 23
nan nan nan nan nan nan nan nan nan nan nan nan nan nan nan nan nan nan nan nan nan nan nan nan nan nan nan nan nan 24 25 25 23 19 17 16 17 16 15 15 14 12 11 11 13 16 15 15 13 12 13 13 11 10 11 13 15 16 18 18 20 18 17 17 18 18 19 19 20 20 20 20 18 17 17 19 22 23 24 24 26 29 28 27 nan 24
nan nan nan nan nan nan nan nan nan nan nan nan nan nan nan nan nan nan nan nan nan nan nan nan nan nan nan nan nan nan 21 22 21 18 17 17 15 14 13 13 14 14 14 14 16 20 20 17 16 16 16 14 11 11 11 13 18 19 20 20 20 20 19 17 18 19 21 24 20 21 20 19 19 18 19 21 24 26 26 26 28 29 29 28 nan nan
nan nan nan nan nan nan nan nan nan nan nan nan nan nan nan nan nan nan nan nan nan nan nan nan nan nan nan nan nan nan 18 17 14 14 16 15 13 12 11 10 10 12 14 15 16 21 21 20 17 17 16 14 14 12 13 13 18 20 20 21 20 21 21 21 19 20 22 24 21 20 20 21 22 20 22 24 26 27 28 27 28 29 29 nan nan nan
nan nan nan nan nan nan nan nan nan nan nan nan nan nan nan nan nan nan nan nan nan nan nan nan nan nan nan nan nan 26 nan 19 19 20 19 15 11 11 11 10 11 13 15 16 17 18 21 21 19 17 15 16 15 16 16 16 17 18 19 21 21 23 23 23 21 22 24 24 23 22 22 24 23 22 23 24 26 27 28 28 28 28 28 nan nan nan
nan nan nan nan nan nan nan nan nan nan nan nan nan nan nan nan nan nan nan nan nan nan nan nan nan nan nan nan nan nan nan 23 22 18 16 14 13 12 12 12 14 16 18 18 18 19 20 20 19 17 15 15 16 17 19 18 19 21 21 23 23 23 25 26 24 24 26 26 26 26 27 26 25 25 25 25 27 27 27 28 28 28 29 nan nan nan
nan nan nan nan nan nan nan nan nan nan nan nan nan nan nan nan nan nan nan nan nan nan nan nan nan nan nan nan nan nan 21 20 19 17 16 15 14 14 13 15 17 19 21 20 20 19 18 18 17 17 16 14 15 19 20 22 22 24 25 26 27 27 27 28 27 26 26 29 31 30 29 29 29 28 28 28 28 28 28 29 29 29 29 nan nan 29
nan nan nan nan nan nan nan nan nan nan nan nan nan nan nan nan nan nan nan nan nan nan nan nan nan nan nan 22 21 21 19 20 21 18 17 16 14 15 16 18 19 20 21 21 21 20 18 16 16 15 15 13 11 15 21 24 26 27 30 31 33 34 32 32 31 27 27 30 32 31 31 32 32 31 30 30 30 29 30 30 31 31 31 30 30 30
nan nan nan nan nan nan nan nan nan nan nan nan nan nan nan nan nan nan nan nan nan nan nan nan nan nan nan 19 16 16 15 15 17 18 17 18 18 18 20 20 20 20 21 21 20 18 17 15 14 13 13 14 13 11 16 21 25 28 31 34 37 37 33 33 31 30 30 31 32 33 32 33 34 33 32 32 32 31 32 33 33 32 31 31 30 29
nan nan nan nan nan nan nan nan nan nan nan nan nan nan nan nan nan nan nan nan nan nan nan nan nan nan 19 17 17 17 15 18 17 17 15 17 21 23 22 22 22 21 20 19 17 17 17 17 15 12 14 13 14 18 20 21 26 30 33 37 37 32 29 29 33 32 30 31 33 33 33 34 35 35 34 34 32 32 34 35 35 33 31 29 29 28
nan nan nan nan nan nan nan nan nan nan nan nan nan nan nan nan nan nan nan nan nan nan nan nan nan nan 22 19 20 20 17 16 18 17 17 18 19 21 21 18 16 15 14 12 12 13 15 16 15 15 14 17 19 20 24 25 28 31 32 32 33 27 26 31 35 35 31 30 33 35 35 37 37 37 35 34 33 34 35 35 32 31 30 29 29 28
nan nan nan nan nan nan nan nan nan nan nan nan nan nan nan nan nan nan nan nan nan nan nan nan nan nan 21 20 19 20 18 16 17 19 18 17 15 14 13 12 11 10 9 9 8 9 10 11 13 14 18 21 21 23 26 29 30 31 31 30 29 30 26 29 33 33 31 30 33 37 38 37 38 36 34 33 34 nan nan 33 32 31 30 31 29 29
nan nan nan nan nan nan nan nan nan nan nan nan nan nan nan nan nan nan nan nan nan nan nan nan 24 21 20 21 19 19 17 16 18 20 17 15 13 10 11 15 15 12 10 10 10 11 10 11 12 16 16 18 20 23 26 29 31 32 30 27 28 28 26 28 31 33 34 33 36 39 40 38 35 34 33 34 34 nan 36 36 34 31 30 32 31 29
nan nan nan nan nan nan nan nan nan nan nan nan 31 nan nan nan nan nan nan nan nan nan nan nan 24 22 20 20 19 21 18 17 17 18 19 16 15 12 16 18 19 16 14 14 15 16 16 15 16 17 18 20 22 26 30 29 32 33 30 26 24 24 25 27 32 36 37 39 37 38 39 38 34 33 35 37 37 35 35 34 33 32 32 34 33 31
nan nan nan nan nan nan nan nan nan nan 30 28 28 nan nan nan nan nan nan nan nan 24 nan nan 23 23 22 21 23 21 19 18 18 21 22 17 17 18 21 24 23 21 20 20 18 18 19 20 19 20 20 22 23 26 29 31 30 31 28 24 24 24 25 30 37 37 40 42 40 35 36 37 36 36 37 37 nan nan 33 36 38 36 nan 36 35 33
nan nan nan nan nan nan nan nan nan 29 28 28 28 nan nan nan nan nan nan nan nan 23 22 nan nan 23 24 23 22 24 25 24 24 25 24 24 25 26 28 28 27 26 26 26 26 25 22 19 18 18 19 22 27 27 27 27 29 29 27 24 23 25 31 37 39 39 37 38 38 36 36 35 34 nan 36 nan nan nan 37 37 38 37 nan nan nan nan
nan nan nan nan nan nan nan 27 27 28 28 28 nan nan nan nan nan nan nan 27 25 24 23 19 21 22 25 26 28 28 27 28 26 26 26 27 28 28 30 31 32 32 32 31 30 27 25 23 21 20 21 25 30 29 28 27 25 24 25 26 28 29 32 35 36 36 37 38 39 nan 39 36 nan nan nan nan nan nan nan nan 37 nan nan nan nan nan
nan nan nan nan nan nan nan 26 25 25 26 28 nan nan nan nan nan 28 28 26 23 24 22 20 19 21 22 25 29 29 29 30 31 30 30 31 31 31 32 33 34 33 33 32 30 29 29 27 26 25 25 26 29 31 30 29 25 19 21 28 30 31 35 35 34 34 35 37 39 39 39 nan 34 33 36 38 nan nan nan nan nan nan nan nan nan nan
nan nan nan nan nan 25 nan nan 24 26 27 26 26 25 27 28 28 28 27 28 28 26 25 23 20 18 20 21 23 28 30 31 33 33 34 34 34 34 34 35 36 35 33 32 31 30 29 29 28 29 28 29 31 32 32 32 30 22 25 34 33 34 34 nan nan nan nan 32 33 33 33 32 31 nan 38 nan nan nan nan nan nan nan nan nan nan nan
nan nan nan nan nan nan 23 23 24 24 23 24 22 25 25 28 28 27 25 26 28 29 28 26 23 21 18 19 26 25 29 32 33 33 34 35 35 35 36 36 36 36 34 32 30 30 29 30 30 32 33 34 34 35 34 33 32 30 34 32 30 28 nan nan nan nan 28 26 nan 26 28 30 nan nan nan nan nan nan nan nan nan nan nan nan nan 39
26 24 24 27 26 21 25 23 22 23 24 25 21 21 25 30 32 29 28 28 28 29 28 28 27 24 23 24 25 28 30 30 33 35 36 37 38 38 38 39 38 36 35 34 32 31 32 34 34 34 38 38 37 38 36 35 34 36 37 35 34 31 nan nan nan 28 nan 24 nan nan nan nan nan nan nan nan nan nan nan nan nan nan nan nan nan nan
26 25 23 23 23 24 24 26 26 24 23 23 23 22 21 26 30 32 32 31 31 30 28 27 27 29 28 28 29 31 31 31 34 36 37 37 38 38 38 38 37 36 35 35 34 34 34 34 35 37 39 38 36 36 35 36 36 39 39 37 36 33 nan 29 nan nan nan nan nan nan nan nan nan nan nan nan nan nan nan nan nan nan nan nan nan nan
nan 27 27 26 25 24 21 22 22 18 15 18 20 22 24 26 28 29 29 29 30 31 29 30 29 33 32 34 34 34 34 34 37 37 37 38 38 38 39 38 37 36 35 35 35 35 36 34 34 36 38 37 34 34 36 38 40 40 39 38 38 36 nan 31 nan nan 26 nan nan nan nan nan nan nan 34 33 nan nan nan nan nan nan nan nan nan nan
nan 27 24 21 23 23 21 20 17 13 17 20 19 19 20 21 21 23 23 25 27 31 34 36 37 35 36 38 37 38 39 38 40 39 39 38 38 38 39 39 39 39 38 38 37 36 34 32 32 34 37 36 35 36 38 40 39 38 39 38 37 37 nan nan nan 31 30 28 28 29 nan nan nan nan nan nan nan nan nan nan nan nan nan nan nan nan
nan 22 22 18 19 18 17 13 12 14 13 15 19 20 21 22 19 19 22 28 30 31 31 34 36 38 39 39 39 39 41 42 43 41 40 39 40 40 40 41 41 41 40 39 37 37 35 33 33 33 34 35 35 37 39 39 39 38 38 38 37 37 nan nan nan nan nan nan nan nan nan nan nan nan nan nan nan nan nan nan nan nan nan nan nan nan
20 15 17 18 16 16 17 17 16 16 16 14 14 17 19 20 22 27 30 29 30 30 30 31 31 34 37 38 36 36 39 43 43 42 40 39 37 36 37 39 38 37 37 37 36 34 32 31 31 32 32 33 34 36 38 40 39 39 38 39 38 nan nan nan nan nan nan nan 31 nan nan 35 34 nan nan nan nan nan nan nan nan nan nan nan nan nan
Wind_Direction
nan nan nan nan nan nan nan nan nan nan nan nan nan nan nan nan nan nan nan nan nan nan nan nan nan nan nan nan 236 238 235 231 229 231 233 235 238 241 242 244 250 243 223 236 246 256 267 267 268 272 274 277 277 280 282 285 288 288 283 279 276 268 267 265 264 260 258 255 249 244 241 245 248 241 237 243 249 254 255 253 256 258 259 264 265 265
nan nan nan nan nan nan nan nan nan nan nan nan nan nan nan nan nan nan nan nan nan nan nan nan nan nan nan nan nan 236 236 234 235 236 237 238 239 237 238 240 244 238 235 247 252 257 267 266 270 269 271 279 285 282 286 290 290 290 286 282 277 271 271 268 261 253 250 249 243 239 237 240 245 241 239 246 250 254 254 249 251 255 259 260 260 261
nan nan nan nan nan nan nan nan nan nan nan nan nan nan nan nan nan nan nan nan nan nan nan nan nan nan nan nan nan 235 240 232 236 240 243 245 243 237 233 233 233 236 241 249 253 258 262 268 268 272 275 275 279 283 292 292 292 292 286 279 274 271 268 262 259 253 247 251 250 250 247 244 241 236 236 245 249 250 250 247 248 252 256 257 257 261
nan nan nan nan nan nan nan nan nan nan nan nan nan nan nan nan nan nan nan nan nan nan nan nan nan nan nan nan nan 223 233 229 230 230 229 231 234 239 237 234 233 234 238 244 252 255 257 265 265 270 278 273 271 274 281 288 289 285 277 272 268 265 262 259 257 257 256 255 252 253 256 243 235 239 243 246 245 246 245 243 245 248 252 256 258 262
nan nan nan nan nan nan nan nan nan nan nan nan nan nan nan nan nan nan nan nan nan nan nan nan nan nan nan nan nan nan 219 222 224 224 225 226 224 224 221 222 229 234 242 243 250 254 257 265 269 268 273 270 272 277 279 281 285 266 258 257 261 263 265 263 261 261 258 256 254 253 249 238 237 237 240 245 245 245 242 244 246 248 251 255 258 264
nan nan nan nan nan nan nan nan nan nan nan nan nan nan nan nan nan nan nan nan nan nan nan nan nan nan nan nan nan 229 228 221 224 226 226 228 228 226 225 226 230 230 232 237 249 259 262 267 267 267 268 277 272 272 270 274 279 282 277 262 249 251 259 265 270 265 260 253 258 255 248 239 235 239 242 247 253 252 250 246 245 247 248 255 260 265
nan nan nan nan nan nan nan nan nan nan nan nan nan nan nan nan nan nan nan nan nan nan nan nan nan nan nan nan nan nan 227 218 225 224 222 228 227 228 228 231 235 234 235 238 244 255 266 271 271 271 269 274 270 266 270 275 278 280 273 272 256 244 255 267 271 269 256 252 254 264 255 247 247 247 244 247 251 250 248 252 253 248 248 254 263 262
nan nan nan nan nan nan nan nan nan nan nan nan nan nan nan nan nan nan nan nan nan nan nan nan nan nan nan nan nan nan 221 219 228 226 226 242 246 242 238 238 239 237 236 238 247 257 261 266 267 269 266 262 265 267 271 275 281 288 294 281 274 258 258 265 264 258 258 252 251 251 249 244 246 248 252 251 247 249 251 252 252 251 251 255 260 261
nan nan nan nan nan nan nan nan nan nan nan nan nan nan nan nan nan nan nan nan nan nan nan nan nan nan nan nan nan nan nan 214 210 345 9 325 276 253 242 238 238 238 238 242 247 254 258 264 262 259 259 259 265 268 272 279 281 287 291 286 276 258 254 258 262 258 262 249 234 251 251 245 241 245 249 250 252 251 251 252 251 249 252 256 257 256
nan nan nan nan nan nan nan nan nan nan nan nan nan nan nan nan nan nan nan nan nan nan nan nan nan nan nan nan nan 227 nan 212 182 33 29 331 302 270 251 245 244 242 240 244 249 254 257 261 260 258 255 260 265 266 273 278 279 286 285 279 275 264 247 248 254 259 261 255 244 246 255 259 253 250 249 250 254 255 254 251 253 248 253 257 256 250
nan nan nan nan nan nan nan nan nan nan nan nan nan nan nan nan nan nan nan nan nan nan nan nan nan nan nan nan nan 239 228 218 213 210 217 233 330 300 253 246 245 243 244 245 253 256 256 258 259 260 262 263 264 266 272 273 278 278 273 260 264 254 247 256 257 264 267 260 253 256 266 266 268 263 260 258 258 257 255 259 260 255 255 252 248 246
nan nan nan nan nan nan nan nan nan nan nan nan nan nan nan nan nan nan nan nan nan nan nan nan nan nan nan nan nan 233 227 226 228 217 218 26 23 19 278 246 249 252 252 256 259 259 258 259 261 262 261 263 263 266 268 268 268 268 253 250 252 258 262 260 252 254 267 261 252 252 260 261 268 269 264 265 264 265 259 264 271 261 254 248 243 246
nan nan nan nan nan nan nan nan nan nan nan nan nan nan nan nan nan nan nan nan nan nan nan nan nan nan nan nan nan nan nan 208 210 200 196 195 172 222 239 253 257 264 271 268 266 262 258 256 257 259 258 259 261 263 267 261 260 254 252 265 273 264 257 256 255 255 261 260 260 259 256 258 261 257 266 264 261 254 250 257 267 263 254 250 249 nan
nan nan nan nan nan nan nan nan nan nan nan nan nan nan nan nan nan nan nan nan nan nan nan nan nan nan nan nan nan nan nan nan 210 200 195 207 222 247 265 271 277 279 277 265 261 260 254 250 251 254 254 255 254 261 260 258 256 254 259 268 270 263 254 256 254 243 241 234 238 250 251 256 256 254 261 259 252 245 246 255 261 256 252 250 248 nan
nan nan nan nan nan nan nan nan nan nan nan nan nan nan nan nan nan nan nan nan nan nan nan nan nan nan nan nan nan nan nan nan nan nan 201 220 237 262 284 290 294 294 284 267 259 255 252 252 254 251 251 252 255 258 257 257 260 260 269 275 269 259 250 249 241 230 229 226 229 251 257 263 263 264 257 250 246 246 250 252 250 243 244 242 nan nan
nan nan nan nan nan nan nan nan nan nan nan nan nan nan nan nan nan nan nan nan nan nan nan nan nan nan nan nan nan nan nan 208 206 nan nan 230 255 277 285 289 293 300 296 276 255 248 251 253 253 252 256 255 255 256 253 262 264 264 267 258 250 259 255 245 236 236 234 238 243 252 257 261 265 262 257 251 239 240 246 252 244 239 239 239 239 nan
nan nan nan nan nan nan nan nan nan nan nan nan nan nan nan nan nan nan nan nan nan nan nan nan nan nan nan nan nan 219 219 215 213 215 224 240 260 277 280 281 286 294 301 287 267 253 253 254 256 260 264 258 257 258 259 265 268 268 266 268 271 263 253 250 249 251 249 246 251 257 259 258 264 271 271 255 250 248 247 247 241 238 239 241 241 248
nan nan nan nan nan nan nan nan nan nan nan nan nan nan nan nan nan nan nan nan nan nan nan nan nan nan nan nan 217 217 215 211 213 219 225 239 257 280 274 274 282 291 299 296 277 263 261 262 268 263 263 262 264 269 268 268 269 269 262 270 261 251 253 252 252 255 249 252 257 261 263 266 263 257 257 252 262 258 254 246 241 242 244 243 245 247
nan nan nan nan nan nan nan nan nan nan nan nan nan nan nan nan nan nan nan nan nan nan nan nan nan nan nan nan nan nan 213 206 213 218 226 236 261 289 280 279 282 286 286 285 281 267 264 267 273 276 275 271 265 265 266 267 268 269 261 259 255 254 259 255 248 249 249 251 252 254 261 267 263 263 267 259 255 259 260 252 247 249 248 245 246 250
nan nan nan nan nan nan nan nan nan nan nan nan nan nan nan nan nan nan nan nan nan nan nan nan nan nan nan nan nan nan 208 202 217 215 205 213 247 266 275 274 275 274 272 271 269 270 271 271 278 277 274 275 277 277 274 268 262 268 262 265 265 265 259 249 253 254 254 253 254 259 262 264 264 253 256 260 264 263 260 254 253 253 252 250 249 254
nan nan nan nan nan nan nan nan nan nan nan nan nan nan nan nan nan nan nan nan nan nan nan nan nan nan nan nan nan nan nan 205 209 193 192 198 210 232 250 256 253 250 250 257 267 272 277 273 276 273 272 274 276 278 274 262 255 260 257 261 267 281 271 256 253 255 255 256 260 267 266 265 263 270 256 261 266 264 256 252 253 251 247 248 253 258
nan nan nan nan nan nan nan nan nan nan nan nan nan nan nan nan nan nan nan nan nan nan nan nan nan nan nan nan nan nan nan 199 192 192 197 197 202 213 232 242 243 239 249 261 263 270 278 277 276 273 271 270 276 280 281 258 246 258 257 252 259 263 262 259 254 254 259 260 262 266 264 267 268 267 263 264 265 257 252 251 250 249 249 254 257 260
nan nan nan nan nan nan nan nan nan nan nan nan nan nan nan nan nan nan nan nan nan nan nan nan nan nan nan nan nan nan nan 193 191 197 200 202 206 214 225 235 239 251 265 267 270 277 284 283 280 282 286 290 292 292 279 259 252 260 259 253 253 257 257 262 262 262 266 265 263 264 261 262 265 267 275 269 264 256 249 248 249 251 255 257 nan 257
nan nan nan nan nan nan nan nan nan nan nan nan nan nan nan nan nan nan nan nan nan nan nan nan nan nan nan nan nan nan nan nan 193 198 203 204 209 218 232 236 240 253 264 260 252 260 273 282 276 282 296 302 305 300 286 264 258 258 254 251 253 256 259 262 260 254 263 262 262 264 263 262 266 276 275 266 256 253 247 249 251 256 258 258 nan 259
nan nan nan nan nan nan nan nan nan nan nan nan nan nan nan nan nan nan nan nan nan nan nan nan nan nan nan nan nan nan 194 193 195 199 201 211 213 223 233 234 233 253 272 268 263 265 277 284 288 292 292 302 308 304 291 278 268 253 254 254 254 257 260 260 258 260 259 259 262 265 265 268 271 278 268 263 256 253 249 252 257 258 262 261 nan 260
nan nan nan nan nan nan nan nan nan nan nan nan nan nan nan nan nan nan nan nan nan nan nan nan nan nan nan nan 201 198 196 199 196 199 201 209 222 228 234 238 243 256 272 284 284 285 293 291 292 300 302 302 301 306 292 276 260 253 256 264 263 263 263 266 255 260 257 258 261 264 267 269 271 271 270 265 261 258 253 256 263 265 262 264 nan 263
nan nan nan nan nan nan nan nan nan nan nan nan nan nan nan nan nan nan nan nan nan nan nan nan nan nan nan nan nan 199 193 195 199 200 206 214 221 232 242 246 249 260 275 301 289 284 276 279 287 289 303 305 302 295 281 267 257 256 263 270 258 265 267 266 265 265 262 260 263 263 268 269 272 263 266 264 261 253 253 259 265 267 267 264 nan 267
nan nan nan nan nan nan nan nan nan nan nan nan nan nan nan nan nan nan nan nan nan nan nan nan nan nan nan nan nan nan 194 195 194 195 207 213 222 234 247 255 255 260 270 279 278 278 282 284 284 281 286 296 296 286 276 267 252 257 263 267 271 273 268 264 267 264 261 254 255 260 264 268 258 259 261 260 259 255 254 258 262 263 263 267 nan nan
nan nan nan nan nan nan nan nan nan nan nan nan nan nan nan nan nan nan nan nan nan nan nan nan nan nan nan nan nan nan 199 195 197 204 213 219 223 233 247 264 278 280 283 285 284 277 275 281 287 288 283 287 281 274 274 271 260 262 263 269 270 263 266 264 267 264 263 258 258 259 264 252 245 253 263 262 258 253 254 257 258 261 263 nan nan nan
nan nan nan nan nan nan nan nan nan nan nan nan nan nan nan nan nan nan nan nan nan nan nan nan nan nan nan nan nan 200 nan 201 205 212 222 231 236 248 261 272 283 289 285 287 291 287 280 274 278 283 282 269 280 268 263 261 267 270 271 266 270 273 278 268 267 266 264 267 263 260 254 247 248 255 261 264 261 257 255 257 259 261 263 nan nan nan
nan nan nan nan nan nan nan nan nan nan nan nan nan nan nan nan nan nan nan nan nan nan nan nan nan nan nan nan nan nan nan 208 217 222 227 237 242 251 263 272 278 282 288 290 289 288 279 274 272 274 278 266 255 263 260 254 264 267 271 267 273 275 273 271 270 264 264 266 265 259 253 252 253 258 264 264 261 258 257 258 257 260 262 nan nan nan
nan nan nan nan nan nan nan nan nan nan nan nan nan nan nan nan nan nan nan nan nan nan nan nan nan nan nan nan nan nan 213 218 226 231 234 236 246 256 264 271 278 284 287 290 292 298 293 278 281 281 276 270 255 252 259 257 259 268 271 274 273 273 278 278 275 271 267 261 258 258 260 256 259 262 263 265 264 262 258 257 258 260 261 nan nan 264
nan nan nan nan nan nan nan nan nan nan nan nan nan nan nan nan nan nan nan nan nan nan nan nan nan nan nan 222 217 216 215 216 224 234 237 241 247 257 266 274 277 281 284 292 299 304 303 291 284 280 271 275 279 260 258 257 257 262 268 273 274 270 271 270 272 276 273 264 264 263 261 261 261 262 262 263 263 258 256 257 257 258 260 263 263 264
nan nan nan nan nan nan nan nan nan nan nan nan nan nan nan nan nan nan nan nan nan nan nan nan nan nan nan 228 222 225 220 214 222 228 235 243 247 253 261 267 273 277 281 286 296 299 299 295 289 281 263 260 268 270 268 269 266 263 267 270 272 269 260 263 269 265 265 265 266 264 261 260 258 259 259 259 258 257 256 257 256 256 256 260 263 266
nan nan nan nan nan nan nan nan nan nan nan nan nan nan nan nan nan nan nan nan nan nan nan nan nan nan 217 220 218 220 223 209 208 219 223 226 235 243 252 260 267 276 285 294 302 296 290 293 296 289 270 264 266 262 268 271 268 265 263 263 267 270 273 277 277 270 266 270 265 264 261 258 256 254 255 257 258 257 256 255 254 257 258 263 268 270
nan nan nan nan nan nan nan nan nan nan nan nan nan nan nan nan nan nan nan nan nan nan nan nan nan nan 216 211 214 225 223 207 198 196 205 218 230 239 252 257 269 280 296 305 310 306 299 296 296 281 269 262 263 270 269 266 264 269 274 277 282 282 279 277 274 271 269 266 267 267 262 258 253 251 253 257 259 257 253 253 257 261 261 264 265 265
nan nan nan nan nan nan nan nan nan nan nan nan nan nan nan nan nan nan nan nan nan nan nan nan nan nan 207 203 218 225 226 220 204 193 199 212 224 228 238 251 274 287 288 285 293 306 300 297 288 284 267 261 268 271 268 270 269 272 277 284 283 289 283 274 275 275 276 270 266 264 263 257 254 254 256 259 259 nan nan 255 256 256 257 260 263 267
nan nan nan nan nan nan nan nan nan nan nan nan nan nan nan nan nan nan nan nan nan nan nan nan 201 205 200 203 216 229 228 221 204 189 203 211 218 228 230 238 252 264 271 266 266 273 288 291 280 270 272 276 277 276 267 269 271 269 279 285 288 292 289 285 281 277 271 264 262 265 262 260 260 258 259 258 259 nan 250 250 254 260 262 265 266 267
nan nan nan nan nan nan nan nan nan nan nan nan 196 nan nan nan nan nan nan nan nan nan nan nan 199 199 205 209 223 233 220 215 213 202 212 219 217 234 249 250 254 261 263 263 269 273 282 287 284 278 273 273 275 270 272 274 271 271 280 286 291 291 287 279 273 274 274 265 258 256 258 259 260 259 258 254 250 250 255 258 261 261 261 263 265 262
nan nan nan nan nan nan nan nan nan nan 197 196 194 nan nan nan nan nan nan nan nan 207 nan nan 202 207 209 211 221 225 219 223 217 214 215 232 232 235 244 249 253 257 256 255 260 269 268 268 273 272 272 271 269 270 281 283 283 283 284 283 285 284 280 270 263 264 264 264 263 255 250 253 258 259 259 260 nan nan 255 255 255 260 nan 265 261 256
nan nan nan nan nan nan nan nan nan 195 191 193 191 nan nan nan nan nan nan nan nan 208 215 nan nan 209 217 223 225 221 217 213 209 212 215 238 242 238 237 240 247 253 255 255 255 259 269 268 269 274 277 269 257 264 271 278 284 294 294 294 288 281 270 268 266 266 266 267 264 259 254 250 256 nan 263 nan nan nan 251 256 262 263 nan nan nan nan
nan nan nan nan nan nan nan 191 192 193 196 194 nan nan nan nan nan nan nan 201 199 201 217 215 214 216 217 223 229 220 222 219 214 216 230 239 241 248 248 251 250 247 247 252 261 265 267 257 252 253 258 258 258 260 264 272 282 291 290 280 275 278 276 273 273 276 276 272 265 nan 246 246 nan nan nan nan nan nan nan nan 265 nan nan nan nan nan
nan nan nan nan nan nan nan 195 196 202 198 200 nan nan nan nan nan 200 193 198 203 197 206 213 213 219 227 226 223 226 226 227 231 236 241 239 244 250 252 254 256 260 263 264 266 264 266 259 250 251 253 255 258 256 263 271 278 280 274 268 266 260 261 264 268 267 269 269 263 252 243 nan 255 258 256 258 nan nan nan nan nan nan nan nan nan nan
nan nan nan nan nan 193 nan nan 191 195 198 198 193 203 204 202 198 197 200 196 202 202 202 206 212 221 230 227 226 228 231 233 236 241 245 244 247 249 250 251 254 258 259 258 262 264 262 256 251 248 250 251 250 254 259 270 277 280 264 254 254 257 261 nan nan nan nan 273 268 252 243 249 258 nan 254 nan nan nan nan nan nan nan nan nan nan nan
nan nan nan nan nan nan 195 197 195 190 190 194 196 199 197 195 199 200 200 197 197 203 207 202 210 222 229 229 227 227 232 234 239 240 246 249 252 254 255 254 256 259 260 262 263 259 256 256 252 245 245 243 246 247 253 262 274 275 268 265 267 270 nan nan nan nan 278 277 nan 267 253 251 nan nan nan nan nan nan nan nan nan nan nan nan nan 284
186 190 189 202 204 200 203 198 187 193 192 191 194 194 196 197 202 205 204 202 203 202 203 205 214 228 226 229 231 230 234 242 246 247 249 250 252 252 254 255 256 257 259 261 262 259 252 249 249 248 245 245 246 247 249 256 265 272 272 273 271 271 nan nan nan 278 nan 281 nan nan nan nan nan nan nan nan nan nan nan nan nan nan nan nan nan nan
185 188 190 206 201 197 205 193 196 190 186 190 191 199 204 203 202 204 207 209 205 205 209 213 219 229 234 233 230 236 240 243 247 248 250 252 254 256 257 258 257 260 262 263 265 263 259 257 253 250 249 249 248 249 250 256 258 262 268 270 271 272 nan 275 nan nan nan nan nan nan nan nan nan nan nan nan nan nan nan nan nan nan nan nan nan nan
nan 189 196 203 201 198 204 201 199 191 181 184 190 193 195 193 199 206 208 211 214 218 218 221 227 229 228 233 235 238 238 239 244 248 250 253 257 258 261 262 263 262 262 265 267 263 261 259 257 256 254 253 252 248 248 250 258 264 266 267 270 273 nan 276 nan nan 284 nan nan nan nan nan nan nan 275 279 nan nan nan nan nan nan nan nan nan nan
nan 182 198 198 207 206 205 201 195 192 203 197 196 196 192 190 190 197 201 208 212 221 226 227 225 226 229 232 233 238 241 240 244 248 251 255 257 260 262 264 265 267 269 269 269 268 266 263 258 256 255 253 248 244 243 250 258 265 269 271 272 274 nan nan nan 278 283 280 277 274 nan nan nan nan nan nan nan nan nan nan nan nan nan nan nan nan
nan 193 189 201 215 206 201 202 193 204 206 197 200 196 190 191 188 195 201 207 207 212 218 226 227 227 227 230 234 238 244 243 244 247 251 254 258 260 263 264 266 268 268 269 267 266 263 258 256 255 251 250 246 242 244 251 256 259 261 267 269 273 nan nan nan nan nan nan nan nan nan nan nan nan nan nan nan nan nan nan nan nan nan nan nan nan
185 182 188 193 198 206 199 195 190 208 223 213 209 202 204 196 200 211 210 209 209 210 212 221 225 224 223 223 229 239 248 250 249 247 247 251 254 257 263 266 267 268 269 270 269 268 265 261 257 253 251 249 248 245 245 249 253 256 260 263 266 nan nan nan nan nan nan nan 278 nan nan 273 276 nan nan nan nan nan nan nan nan nan nan nan nan nan